Weather History for McMinnville, OR

Change the Weather History Date:

Monday, April 22, 2013

  Actual Average Record
Temperature  
Mean Temperature 52 °F 51 °F  
Max Temperature 67 °F 62 °F 85 °F (1910)
Min Temperature 37 °F 40 °F 26 °F (1968)
Degree Days  
Heating Degree Days 13 14  
Month to date heating degree days 326 341  
Since 1 July heating degree days 3942 4292  
Cooling Degree Days 0 0  
Month to date cooling degree days 0 0  
Year to date cooling degree days 0 0  
Growing Degree Days 2 (Base 50)    
Moisture  
Dew Point 34 °F    
Average Humidity 54    
Maximum Humidity 85    
Minimum Humidity 22    
Precipitation  
Precipitation 0.00 in 0.09 in 0.66 in (1990)
Month to date precipitation 1.69 2.30  
Year to date precipitation 6.29 16.87  
Snow  
Snow 0.00 in - - ()
Month to date snowfall 0.0  
Snow Depth 0.00 in    
Sea Level Pressure  
Sea Level Pressure 30.39 in    
Wind  
Wind Speed 8 mph (North)    
Max Wind Speed 17 mph    
Max Gust Speed 22 mph    
Visibility 10 miles    
Events      
T = Trace of Precipitation, MM = Missing Value Source: NWS Daily Summary

Daily Weather History Graph

Daily Weather History Graph

Search for Another Location

Airport:

Trip Planner

Search our weather history database for the weather conditions in past years. The results will help you decide how hot, cold, wet, or windy it might be!

Date:

Astronomy

Apr. 22, 2013 Rise Set
Actual Time 6:15 AM PDT 8:07 PM PDT
Civil Twilight 5:43 AM PDT 8:39 PM PDT
Nautical Twilight 5:05 AM PDT 9:18 PM PDT
Astronomical Twilight 4:23 AM PDT 10:00 PM PDT
Moon 4:55 PM PDT (4/22) 4:21 AM PDT (4/22)
Length of Visible Light 14h 55m
Length of Day
13h 52m
Waxing Gibbous, 88% of the Moon is Illuminated
Apr 22
Waxing Gibbous
Apr 25
Full
May 2
Last Quarter
May 9
New
May 17
First Quarter

Hourly Weather History & Observations

Time (PDT) Temp. Windchill Dew Point Humidity Pressure Visibility Wind Dir Wind Speed Gust Speed Precip Events Conditions
12:53 AM 45.0 °F - 37.0 °F 74% 30.35 in 10.0 mi Calm Calm - N/A   Scattered Clouds
1:53 AM 42.1 °F - 36.0 °F 79% 30.36 in 10.0 mi Calm Calm - N/A   Clear
2:53 AM 42.1 °F 39.2 °F 36.0 °F 79% 30.36 in 10.0 mi North 4.6 mph - N/A   Clear
3:53 AM 39.0 °F 35.7 °F 35.1 °F 86% 30.37 in 10.0 mi NW 4.6 mph - N/A   Clear
4:53 AM 39.0 °F 35.7 °F 35.1 °F 86% 30.38 in 10.0 mi NNW 4.6 mph - N/A   Clear
5:53 AM 39.0 °F 35.7 °F 35.1 °F 86% 30.39 in 10.0 mi North 4.6 mph - N/A   Clear
6:53 AM 37.9 °F 34.4 °F 34.0 °F 86% 30.41 in 10.0 mi North 4.6 mph - N/A   Clear
7:53 AM 45.0 °F 40.1 °F 37.9 °F 76% 30.43 in 10.0 mi North 9.2 mph - N/A   Clear
8:53 AM 48.9 °F - 39.9 °F 71% 30.43 in 10.0 mi North 8.1 mph - N/A   Clear
9:53 AM 53.1 °F - 39.0 °F 59% 30.43 in 10.0 mi Variable 6.9 mph - N/A   Clear
10:53 AM 57.0 °F - 37.0 °F 47% 30.43 in 10.0 mi NNE 11.5 mph - N/A   Clear
11:53 AM 60.1 °F - 33.1 °F 36% 30.43 in 10.0 mi NNE 11.5 mph - N/A   Clear
12:53 PM 62.1 °F - 35.1 °F 37% 30.41 in 10.0 mi NNE 11.5 mph 20.7 mph N/A   Clear
1:53 PM 63.0 °F - 36.0 °F 37% 30.40 in 10.0 mi NE 10.4 mph 19.6 mph N/A   Clear
2:53 PM 64.9 °F - 33.1 °F 31% 30.39 in 10.0 mi North 10.4 mph - N/A   Clear
3:53 PM 66.0 °F - 33.1 °F 29% 30.37 in 10.0 mi NNE 12.7 mph 18.4 mph N/A   Clear
4:53 PM 66.0 °F - 27.0 °F 23% 30.36 in 10.0 mi NNE 12.7 mph 19.6 mph N/A   Clear
5:53 PM 64.9 °F - 28.9 °F 26% 30.35 in 10.0 mi North 15.0 mph - N/A   Clear
6:53 PM 63.0 °F - 30.0 °F 29% 30.35 in 10.0 mi North 10.4 mph - N/A   Clear
7:53 PM 57.9 °F - 32.0 °F 37% 30.35 in 10.0 mi North 6.9 mph - N/A   Clear
8:53 PM 54.0 °F - 32.0 °F 43% 30.37 in 10.0 mi North 6.9 mph - N/A   Clear
9:53 PM 53.1 °F - 34.0 °F 48% 30.39 in 10.0 mi North 8.1 mph - N/A   Clear
10:53 PM 51.1 °F - 35.1 °F 54% 30.38 in 10.0 mi North 6.9 mph - N/A   Clear
11:53 PM 48.9 °F - 35.1 °F 59% 30.38 in 10.0 mi NNW 4.6 mph - N/A   Clear